STARLINK-34493

导读 | 豆包AI

STARLINK-34493是美国SpaceX公司星链(Starlink)星座的成员卫星,于2025年6月23日发射入轨,运行在低地球轨道(LEO)。星链星座旨在为全球提供高速低延迟宽带互联网服务,尤其覆盖基础设施缺乏的偏远区域。STARLINK-34493的入轨进一步拓展了星链网络规模,助力实现更稳定的全球覆盖,为用户提供高速网络连接。

Basic Information
目录编号:
64472
目录名称:
STARLINK-34493
国际标识:
2025-133A
轨道中心:
EARTH
卫星名称:
STARLINK-34493
卫星全名:
STARLINK-34493
卫星状态:
在轨 (已飞行310 天)
发射日期:
2025-06-23 UTC
国别 :
美国 (US)
星等 :
--
Orbit Information
数据来源 国际轨道数据
星历时间: 2026-04-29T08:53:21+0800
14小时前
查看轨道信息
半长轴: 6853.347km
偏心率: 0.0001221
轨道倾角: 53.157°
近地点辐角 69.163°
升交点赤经 243.167°
平近点角 290.950°
近地点: 474.373km
远地点: 476.047km
周期: 94.105分钟
每日圈数: 15.302018
Detailed Information
使用方式:
暂无
2D Orbit Map
3D Orbit Map
Orbit Altitude Analysis Chart
Orbit Inclination Analysis Chart
Orbit Comprehensive Analysis Chart
View Comprehensive Chart